Change the Weather History Date:

Thursday, May 15, 2014

  Actual Average Record
Temperature  
Mean Temperature 64 °F 51 °F  
Max Temperature 77 °F 60 °F 85 °F (2006)
Min Temperature 51 °F 43 °F 31 °F (1982)
Degree Days  
Heating Degree Days 1 14  
Month to date heating degree days 155 225  
Since 1 July heating degree days 4437 5267  
Cooling Degree Days 0 0  
Month to date cooling degree days 2 0  
Year to date cooling degree days 4 0  
Growing Degree Days 14 (Base 50)    
Moisture  
Dew Point 51 °F    
Average Humidity 65    
Maximum Humidity 86    
Minimum Humidity 43    
Precipitation  
Precipitation 0.00 in 0.16 in 1.85 in (2001)
Month to date precipitation 3.16 2.68  
Year to date precipitation 51.44 46.32  
Sea Level Pressure  
Sea Level Pressure 30.03 in    
Wind  
Wind Speed 6 mph (South)    
Max Wind Speed 20 mph    
Max Gust Speed 27 mph    
Visibility 6 miles    
Events      
T = Trace of Precipitation, MM = Missing Value Source: NWS Daily Summary

Daily Weather History Graph

Daily Weather History Graph

Search for Another Location

Airport or City:

Trip Planner

Search our weather history database for the weather conditions in past years. The results will help you decide how hot, cold, wet, or windy it might be!

Date:

Astronomy

May. 15, 2014 Rise Set
Actual Time 5:39 AM PDT 8:50 PM PDT
Civil Twilight 5:02 AM PDT 9:27 PM PDT
Nautical Twilight 4:14 AM PDT 10:16 PM PDT
Astronomical Twilight 3:14 AM PDT 11:17 PM PDT
Moon 10:04 PM PDT (5/15) 6:32 AM PDT (5/15)
Length of Visible Light 16h 25m
Length of Day
15h 10m
Full, 99% of the Moon is Illuminated
May 15
Full
May 21
Last Quarter
May 28
New
Jun 5
First Quarter
Jun 12
Full

Hourly Weather History & Observations

Time (PDT) Temp. Dew Point Humidity Pressure Visibility Wind Dir Wind Speed Gust Speed Precip Events Conditions
12:53 AM 57.0 °F 50.0 °F 77% 30.09 in 8.0 mi Calm Calm - N/A   Clear
1:53 AM 57.0 °F 50.0 °F 77% 30.06 in 8.0 mi Calm Calm - N/A   Clear
2:53 AM 55.0 °F 48.9 °F 80% 30.06 in 8.0 mi East 3.5 mph - N/A   Clear
3:53 AM 53.1 °F 48.9 °F 86% 30.05 in 8.0 mi Calm Calm - N/A   Clear
4:53 AM 54.0 °F 46.9 °F 77% 30.03 in 8.0 mi East 3.5 mph - N/A   Clear
5:53 AM 53.1 °F 46.9 °F 80% 30.03 in 7.0 mi ESE 3.5 mph - N/A   Clear
6:53 AM 55.9 °F 48.0 °F 75% 30.02 in 7.0 mi Calm Calm - N/A   Clear
7:53 AM 59.0 °F 51.1 °F 75% 30.03 in 7.0 mi ESE 3.5 mph - N/A   Clear
8:53 AM 64.9 °F 53.1 °F 65% 30.03 in 6.0 mi Calm Calm - N/A   Haze
9:53 AM 72.0 °F 53.1 °F 51% 30.00 in 7.0 mi Calm Calm - N/A   Clear
10:53 AM 73.9 °F 52.0 °F 46% 30.00 in 7.0 mi Variable 3.5 mph - N/A   Clear
12:53 PM 73.0 °F 53.1 °F 49% 29.99 in 7.0 mi South 6.9 mph - N/A   Clear
1:53 PM 70.0 °F 52.0 °F 53% 30.00 in 6.0 mi South 10.4 mph - N/A   Haze
2:53 PM 70.0 °F 53.1 °F 55% 30.01 in 6.0 mi SSW 10.4 mph 20.7 mph N/A   Haze
3:53 PM 66.9 °F 55.9 °F 68% 30.01 in 6.0 mi Variable 5.8 mph - N/A   Haze
4:53 PM 68.0 °F 52.0 °F 56% 30.01 in 6.0 mi Variable 5.8 mph - N/A   Haze
5:53 PM 61.0 °F 55.9 °F 83% 30.02 in 5.0 mi SSW 15.0 mph 25.3 mph N/A   Haze
6:53 PM 57.9 °F 54.0 °F 87% 30.03 in 4.0 mi SSW 10.4 mph 20.7 mph N/A   Overcast
7:53 PM 57.9 °F 53.1 °F 84% 30.04 in 5.0 mi South 9.2 mph - N/A   Haze
8:51 PM 57.2 °F 51.8 °F 82% 30.04 in 5.0 mi South 10.4 mph - N/A   Haze
8:53 PM 57.0 °F 52.0 °F 83% 30.05 in 5.0 mi South 10.4 mph - N/A   Haze
9:53 PM 55.9 °F 50.0 °F 80% 30.05 in 6.0 mi South 9.2 mph - N/A   Haze
10:53 PM 55.9 °F 50.0 °F 80% 30.05 in 7.0 mi Variable 6.9 mph 18.4 mph N/A   Overcast
11:53 PM 57.0 °F 48.0 °F 72% 30.06 in 7.0 mi South 13.8 mph 20.7 mph N/A   Overcast